Location: Unspecified
(0.0000°N, 0.0000°E)
Time: 23:53:16
(UTC+00:00)

Vanguard 2 - Pass Details

Date: 02 October 2020
Orbit: 554 x 2937 km, 32.9° (Epoch: 28 October)

Event Time Altitude Azimuth Distance (km) Brightness Sun altitude
Rises 18:40:48 0° 218° (SW) 5,635 12.6 -12.9°
Reaches altitude 10° 18:46:58 10° 197° (SSW) 5,087 12.0 -14.4°
Maximum altitude 18:55:06 16° 165° (SSE) 5,035 11.5 -16.5°
Drops below altitude 10° 19:04:08 10° 133° (SE) 5,751 11.6 -18.7°
Enters shadow 19:07:07 - 125° (SE) 6,107 11.7 -19.5°
Sets 19:11:58 0° 114° (ESE) 6,758 - -20.7°
